| time (UTC) | temp C | wind direction | speed KPH | gust KPH | rain 1hr cm | rain 24hr cm | rain mn cm | humidity % | barometer mb |
| 20260506134529 | 15 | 5 | 3.2 | 11.3 | 0.00 | 0.00 | 0.00 | 65 | 1009.2 |
| 20260506134146 | 15 | 48 | 1.6 | 16.1 | 0.00 | 0.00 | 0.00 | 66 | 1009.2 |
| 20260506133103 | 15 | 6 | 4.8 | 20.9 | 0.00 | 0.00 | 0.00 | 65 | 1009.2 |
| 20260506132713 | 15 | 22 | 3.2 | 16.1 | 0.00 | 0.00 | 0.00 | 65 | 1009.2 |
| 20260506131541 | 15 | 356 | 1.6 | 16.1 | 0.00 | 0.00 | 0.00 | 65 | 1009.1 |
| 20260506131155 | 15 | 348 | 3.2 | 17.7 | 0.00 | 0.00 | 0.00 | 64 | 1009.1 |
| 20260506130054 | 15 | 348 | 3.2 | 17.7 | 0.00 | 0.00 | 0.00 | 64 | 1009.1 |
| 20260506125548 | 15 | 27 | 3.2 | 11.3 | 0.00 | 0.00 | 0.00 | 64 | 1009.0 |
| 20260506125108 | 15 | 103 | 0.0 | 8.0 | 0.00 | 0.00 | 0.00 | 63 | 1009.1 |
| 20260506124613 | 15 | 0 | 1.6 | 11.3 | 0.00 | 0.00 | 0.00 | 62 | 1009.1 |
| 20260506124219 | 15 | 339 | 1.6 | 11.3 | 0.00 | 0.00 | 0.00 | 62 | 1009.1 |
| 20260506123121 | 15 | 27 | 3.2 | 16.1 | 0.00 | 0.00 | 0.00 | 60 | 1008.9 |
| 20260506122539 | 16 | 57 | 1.6 | 16.1 | 0.00 | 0.00 | 0.00 | 58 | 1009.1 |
| 20260506122100 | 16 | 13 | 1.6 | 16.1 | 0.00 | 0.00 | 0.00 | 58 | 1009.0 |
| 20260506121614 | 16 | 99 | 3.2 | 16.1 | 0.00 | 0.00 | 0.00 | 58 | 1008.9 |
| 20260506121041 | 16 | 228 | 1.6 | 8.0 | 0.00 | 0.00 | 0.00 | 59 | 1008.8 |
| 20260506120610 | 16 | 96 | 1.6 | 11.3 | 0.00 | 0.00 | 0.00 | 59 | 1008.8 |
| 20260506120027 | 16 | 180 | 3.2 | 14.5 | 0.00 | 0.00 | 0.00 | 59 | 1008.7 |
| 20260506115555 | 16 | 30 | 4.8 | 14.5 | 0.00 | 0.00 | 0.00 | 59 | 1008.7 |
| 20260506115029 | 16 | 20 | 1.6 | 9.7 | 0.00 | 0.00 | 0.00 | 60 | 1008.8 |
| 20260506114552 | 15 | 168 | 3.2 | 11.3 | 0.00 | 0.00 | 0.00 | 59 | 1008.7 |
| 20260506114045 | 16 | 39 | 3.2 | 11.3 | 0.00 | 0.00 | 0.00 | 59 | 1008.7 |
| 20260506113600 | 16 | 346 | 1.6 | 19.3 | 0.00 | 0.00 | 0.00 | 59 | 1008.7 |
| 20260506113121 | 16 | 50 | 3.2 | 19.3 | 0.00 | 0.00 | 0.00 | 60 | 1008.7 |
| 20260506112548 | 16 | 3 | 1.6 | 11.3 | 0.00 | 0.00 | 0.00 | 60 | 1008.7 |
| 20260506112111 | 16 | 34 | 0.0 | 11.3 | 0.00 | 0.00 | 0.00 | 60 | 1008.7 |
| 20260506111530 | 15 | 215 | 1.6 | 11.3 | 0.00 | 0.00 | 0.00 | 60 | 1008.8 |
| 20260506111055 | 15 | 341 | 1.6 | 8.0 | 0.00 | 0.00 | 0.00 | 60 | 1008.7 |
| 20260506110528 | 15 | 153 | 1.6 | 8.0 | 0.00 | 0.00 | 0.00 | 58 | 1008.6 |
| 20260506110044 | 16 | 181 | 3.2 | 8.0 | 0.00 | 0.00 | 0.00 | 57 | 1008.7 |
| 20260506105602 | 15 | 23 | 1.6 | 8.0 | 0.00 | 0.00 | 0.00 | 61 | 1008.6 |
| 20260506105116 | 15 | 37 | 3.2 | 8.0 | 0.00 | 0.00 | 0.00 | 62 | 1008.6 |
| 20260506104043 | 14 | 95 | 0.0 | 11.3 | 0.00 | 0.00 | 0.00 | 61 | 1008.7 |
| 20260506103613 | 14 | 187 | 3.2 | 11.3 | 0.00 | 0.00 | 0.00 | 58 | 1008.7 |
| 20260506103034 | 14 | 204 | 3.2 | 9.7 | 0.00 | 0.00 | 0.00 | 57 | 1008.6 |
| 20260506102643 | 14 | 170 | 1.6 | 9.7 | 0.00 | 0.00 | 0.00 | 57 | 1008.6 |
| 20260506101609 | 13 | 267 | 1.6 | 8.0 | 0.00 | 0.00 | 0.00 | 61 | 1008.7 |
| 20260506101032 | 13 | 284 | 0.0 | 8.0 | 0.00 | 0.00 | 0.00 | 61 | 1008.6 |
| 20260506100559 | 13 | 339 | 0.0 | 8.0 | 0.00 | 0.00 | 0.00 | 62 | 1008.5 |
| 20260506100016 | 13 | 262 | 1.6 | 8.0 | 0.00 | 0.00 | 0.00 | 62 | 1008.5 |
| 20260506095627 | 13 | 200 | 1.6 | 8.0 | 0.00 | 0.00 | 0.00 | 62 | 1008.6 |
| 20260506095256 | 13 | 214 | 0.0 | 6.4 | 0.00 | 0.00 | 0.00 | 62 | 1008.5 |
| 20260506093614 | 13 | 32 | 0.0 | 6.4 | 0.00 | 0.00 | 0.00 | 63 | 1008.5 |
| 20260506093030 | 13 | 109 | 0.0 | 3.2 | 0.00 | 0.00 | 0.00 | 63 | 1008.5 |
| 20260506092552 | 13 | 88 | 0.0 | 9.7 | 0.00 | 0.00 | 0.00 | 64 | 1008.5 |
| 20260506092023 | 13 | 81 | 0.0 | 9.7 | 0.00 | 0.00 | 0.00 | 64 | 1008.5 |
| 20260506091534 | 13 | 61 | 0.0 | 8.0 | 0.00 | 0.00 | 0.00 | 66 | 1008.5 |
| 20260506091145 | 13 | 256 | 0.0 | 8.0 | 0.00 | 0.00 | 0.00 | 65 | 1008.5 |
| 20260506085631 | 13 | 239 | 0.0 | 4.8 | 0.00 | 0.00 | 0.00 | 67 | 1008.5 |
| 20260506084608 | 12 | 259 | 1.6 | 4.8 | 0.00 | 0.00 | 0.00 | 66 | 1008.5 |
| 20260506084033 | 12 | 13 | 0.0 | 4.8 | 0.00 | 0.00 | 0.00 | 66 | 1008.3 |
| 20260506083602 | 12 | 328 | 0.0 | 4.8 | 0.00 | 0.00 | 0.00 | 66 | 1008.5 |
| 20260506083124 | 12 | 325 | 0.0 | 1.6 | 0.00 | 0.00 | 0.00 | 67 | 1008.5 |
| 20260506082057 | 12 | 339 | 1.6 | 9.7 | 0.00 | 0.00 | 0.00 | 65 | 1008.4 |
| 20260506081526 | 12 | 180 | 0.0 | 9.7 | 0.00 | 0.00 | 0.00 | 65 | 1008.3 |
| 20260506081044 | 12 | 183 | 0.0 | 8.0 | 0.00 | 0.00 | 0.00 | 66 | 1008.3 |
| 20260506080609 | 12 | 8 | 0.0 | 8.0 | 0.00 | 0.00 | 0.00 | 67 | 1008.2 |
| 20260506073152 | 12 | 207 | 0.0 | 8.0 | 0.00 | 0.00 | 0.00 | 72 | 1008.0 |
| 20260506071541 | 11 | 144 | 0.0 | 3.2 | 0.00 | 0.00 | 0.00 | 76 | 1008.0 |
| 20260506071027 | 11 | 352 | 0.0 | 3.2 | 0.00 | 0.00 | 0.00 | 78 | 1008.0 |
| 20260506070559 | 11 | 358 | 0.0 | 4.8 | 0.00 | 0.00 | 0.00 | 79 | 1007.9 |
| 20260506061534 | 10 | 85 | 0.0 | 6.4 | 0.00 | 0.00 | 0.00 | 83 | 1007.8 |
| 20260506061106 | 10 | 86 | 0.0 | 6.4 | 0.00 | 0.00 | 0.00 | 84 | 1007.8 |
| 20260506060544 | 10 | 36 | 0.0 | 1.6 | 0.00 | 0.00 | 0.00 | 85 | 1007.8 |
| 20260506060205 | 10 | 34 | 0.0 | 4.8 | 0.00 | 0.00 | 0.00 | 85 | 1007.8 |
| 20260506051038 | 8 | 33 | 0.0 | 3.2 | 0.00 | 0.00 | 0.00 | 88 | 1007.7 |
| 20260506050604 | 8 | 27 | 0.0 | 1.6 | 0.00 | 0.00 | 0.00 | 88 | 1007.7 |
| 20260506045110 | 8 | 3 | 0.0 | 1.6 | 0.00 | 0.00 | 0.00 | 88 | 1007.7 |
| 20260506044100 | 8 | 2 | 0.0 | 3.2 | 0.00 | 0.00 | 0.00 | 88 | 1007.8 |
| 20260506043533 | 8 | 44 | 0.0 | 1.6 | 0.00 | 0.00 | 0.00 | 87 | 1007.9 |
| 20260506043010 | 7 | 24 | 0.0 | 1.6 | 0.00 | 0.00 | 0.00 | 87 | 1007.8 |
| 20260506042634 | 8 | 26 | 0.0 | 1.6 | 0.00 | 0.00 | 0.00 | 87 | 1007.8 |
| 20260506041527 | 8 | 24 | 0.0 | 1.6 | 0.00 | 0.00 | 0.00 | 88 | 1007.8 |
| 20260506041148 | 8 | 24 | 0.0 | 0.0 | 0.00 | 0.00 | 0.00 | 87 | 1007.8 |
| 20260506040037 | 8 | 24 | 0.0 | 1.6 | 0.00 | 0.00 | 0.00 | 88 | 1007.8 |
| 20260506035607 | 8 | 22 | 0.0 | 0.0 | 0.00 | 0.00 | 0.00 | 88 | 1007.7 |
| 20260506035039 | 8 | 22 | 0.0 | 0.0 | 0.00 | 0.00 | 0.00 | 88 | 1007.7 |
| 20260506034803 | 8 | 22 | 0.0 | 0.0 | 0.00 | 0.00 | 0.00 | 87 | 1007.8 |
| 20260506033850 | 8 | 22 | 0.0 | 0.0 | 0.00 | 0.00 | 0.00 | 87 | 1007.9 |
| 20260506031622 | 8 | 23 | 0.0 | 0.0 | 0.00 | 0.00 | 0.00 | 87 | 1008.0 |
| 20260506031155 | 8 | 23 | 0.0 | 0.0 | 0.00 | 0.00 | 0.00 | 87 | 1007.9 |
| 20260506030717 | 8 | 23 | 0.0 | 0.0 | 0.00 | 0.00 | 0.00 | 87 | 1008.1 |
| 20260506025628 | 8 | 23 | 0.0 | 3.2 | 0.00 | 0.00 | 0.00 | 87 | 1008.1 |
| 20260506025108 | 8 | 23 | 0.0 | 3.2 | 0.00 | 0.00 | 0.00 | 87 | 1008.1 |
| 20260506024641 | 8 | 24 | 0.0 | 4.8 | 0.00 | 0.00 | 0.00 | 87 | 1008.1 |
| 20260506024107 | 9 | 36 | 0.0 | 4.8 | 0.00 | 0.00 | 0.00 | 87 | 1008.1 |
| 20260506023635 | 9 | 26 | 0.0 | 1.6 | 0.00 | 0.00 | 0.00 | 87 | 1008.2 |
| 20260506023108 | 9 | 33 | 0.0 | 1.6 | 0.00 | 0.00 | 0.00 | 87 | 1008.2 |
| 20260506022632 | 9 | 32 | 0.0 | 1.6 | 0.00 | 0.00 | 0.00 | 87 | 1008.2 |
| 20260506021618 | 9 | 30 | 0.0 | 1.6 | 0.00 | 0.00 | 0.00 | 86 | 1008.3 |
| 20260506021053 | 9 | 39 | 0.0 | 3.2 | 0.00 | 0.00 | 0.00 | 86 | 1008.3 |
| 20260506020721 | 9 | 39 | 0.0 | 3.2 | 0.00 | 0.00 | 0.00 | 86 | 1008.4 |
| 20260506015125 | 9 | 37 | 0.0 | 4.8 | 0.00 | 0.00 | 0.00 | 85 | 1008.4 |
| 20260506014603 | 9 | 41 | 0.0 | 1.6 | 0.00 | 0.00 | 0.00 | 84 | 1008.3 |
| 20260506014136 | 9 | 19 | 0.0 | 3.2 | 0.00 | 0.00 | 0.00 | 84 | 1008.4 |
| 20260506013608 | 9 | 17 | 0.0 | 3.2 | 0.00 | 0.00 | 0.00 | 84 | 1008.3 |
| 20260506013131 | 9 | 17 | 0.0 | 4.8 | 0.00 | 0.00 | 0.00 | 84 | 1008.4 |
| 20260506012120 | 9 | 13 | 0.0 | 4.8 | 0.00 | 0.00 | 0.00 | 83 | 1008.5 |
| 20260506011544 | 9 | 22 | 0.0 | 3.2 | 0.00 | 0.00 | 0.00 | 83 | 1008.5 |
| 20260506011111 | 9 | 20 | 0.0 | 3.2 | 0.00 | 0.00 | 0.00 | 83 | 1008.5 |
| 20260506010632 | 9 | 26 | 0.0 | 0.0 | 0.00 | 0.00 | 0.00 | 82 | 1008.6 |
| 20260506010158 | 9 | 27 | 0.0 | 1.6 | 0.00 | 0.00 | 0.00 | 82 | 1008.6 |
| 20260506005049 | 10 | 27 | 0.0 | 1.6 | 0.00 | 0.00 | 0.00 | 82 | 1008.7 |
| 20260506004617 | 10 | 27 | 0.0 | 6.4 | 0.00 | 0.00 | 0.00 | 82 | 1008.6 |
| 20260506004051 | 10 | 27 | 0.0 | 6.4 | 0.00 | 0.00 | 0.00 | 82 | 1008.8 |
| 20260506003616 | 10 | 29 | 0.0 | 3.2 | 0.00 | 0.00 | 0.00 | 82 | 1008.9 |
| 20260506003042 | 10 | 29 | 0.0 | 3.2 | 0.00 | 0.00 | 0.00 | 82 | 1008.9 |
| 20260506002603 | 10 | 32 | 0.0 | 3.2 | 0.00 | 0.00 | 0.00 | 82 | 1009.0 |
| 20260506002126 | 10 | 26 | 0.0 | 0.0 | 0.00 | 0.00 | 0.00 | 82 | 1009.0 |
| 20260506001601 | 10 | 26 | 0.0 | 3.2 | 0.00 | 0.00 | 0.00 | 82 | 1009.0 |
| 20260506001032 | 10 | 26 | 0.0 | 3.2 | 0.00 | 0.00 | 0.00 | 83 | 1009.1 |
| 20260506000554 | 10 | 22 | 0.0 | 3.2 | 0.00 | 0.00 | 0.00 | 83 | 1009.1 |
| 20260506000119 | 10 | 41 | 0.0 | 3.2 | 0.00 | 0.00 | 0.00 | 83 | 1009.0 |
| 20260505235157 | 10 | 27 | 0.0 | 6.4 | 0.00 | 0.00 | 0.00 | 83 | 1009.0 |
| 20260505234033 | 10 | 16 | 0.0 | 3.2 | 0.00 | 0.00 | 0.00 | 83 | 1009.0 |
| 20260505233557 | 10 | 32 | 0.0 | 4.8 | 0.00 | 0.00 | 0.00 | 82 | 1009.0 |
| 20260505233125 | 10 | 34 | 0.0 | 4.8 | 0.00 | 0.00 | 0.00 | 82 | 1009.0 |
| 20260505232553 | 10 | 358 | 0.0 | 4.8 | 0.00 | 0.00 | 0.00 | 82 | 1009.1 |
| 20260505232023 | 10 | 44 | 0.0 | 4.8 | 0.00 | 0.00 | 0.00 | 82 | 1009.2 |
| 20260505231640 | 10 | 12 | 0.0 | 6.4 | 0.00 | 0.00 | 0.00 | 82 | 1009.2 |
| 20260505230605 | 10 | 8 | 1.6 | 4.8 | 0.00 | 0.00 | 0.00 | 82 | 1009.2 |
| 20260505230110 | 10 | 12 | 0.0 | 8.0 | 0.00 | 0.00 | 0.00 | 82 | 1009.2 |
| 20260505225143 | 10 | 37 | 0.0 | 6.4 | 0.00 | 0.00 | 0.00 | 81 | 1009.4 |
| 20260505224117 | 10 | 41 | 0.0 | 4.8 | 0.00 | 0.00 | 0.00 | 81 | 1009.4 |
| 20260505223053 | 10 | 44 | 0.0 | 6.4 | 0.00 | 0.00 | 0.00 | 81 | 1009.6 |
| 20260505222524 | 10 | 17 | 0.0 | 6.4 | 0.00 | 0.00 | 0.00 | 80 | 1009.7 |
| 20260505222048 | 10 | 5 | 1.6 | 6.4 | 0.00 | 0.00 | 0.00 | 80 | 1009.6 |
| 20260505221525 | 10 | 34 | 0.0 | 9.7 | 0.00 | 0.00 | 0.00 | 80 | 1009.6 |
| 20260505221045 | 10 | 43 | 4.8 | 9.7 | 0.00 | 0.00 | 0.00 | 80 | 1009.7 |
| 20260505220608 | 10 | 22 | 0.0 | 4.8 | 0.00 | 0.00 | 0.00 | 80 | 1009.7 |
| 20260505215537 | 10 | 26 | 0.0 | 8.0 | 0.00 | 0.00 | 0.00 | 80 | 1009.8 |
| 20260505215012 | 10 | 23 | 1.6 | 8.0 | 0.00 | 0.00 | 0.00 | 80 | 1009.8 |
| 20260505214538 | 10 | 55 | 0.0 | 6.4 | 0.00 | 0.00 | 0.00 | 80 | 1009.7 |
| 20260505214147 | 10 | 60 | 0.0 | 6.4 | 0.00 | 0.00 | 0.00 | 80 | 1009.9 |
| 20260505213107 | 10 | 348 | 3.2 | 11.3 | 0.00 | 0.00 | 0.00 | 80 | 1009.9 |
| 20260505212039 | 10 | 27 | 1.6 | 4.8 | 0.00 | 0.00 | 0.00 | 80 | 1010.0 |
| 20260505211556 | 10 | 41 | 0.0 | 6.4 | 0.00 | 0.00 | 0.00 | 80 | 1010.0 |
| 20260505211115 | 10 | 36 | 0.0 | 8.0 | 0.00 | 0.00 | 0.00 | 79 | 1009.9 |
| 20260505210145 | 10 | 359 | 1.6 | 9.7 | 0.00 | 0.00 | 0.00 | 79 | 1010.0 |
| 20260505205024 | 10 | 24 | 0.0 | 8.0 | 0.00 | 0.00 | 0.00 | 79 | 1010.0 |
| 20260505204541 | 10 | 16 | 0.0 | 8.0 | 0.00 | 0.00 | 0.00 | 79 | 1010.0 |
| 20260505204004 | 10 | 37 | 0.0 | 4.8 | 0.00 | 0.00 | 0.00 | 80 | 1010.0 |
| 20260505203532 | 10 | 51 | 0.0 | 0.0 | 0.00 | 0.00 | 0.00 | 80 | 1010.1 |
| 20260505203009 | 10 | 44 | 0.0 | 3.2 | 0.00 | 0.00 | 0.00 | 81 | 1010.1 |
| 20260505202635 | 10 | 44 | 0.0 | 3.2 | 0.00 | 0.00 | 0.00 | 81 | 1010.0 |
| 20260505201034 | 10 | 136 | 0.0 | 8.0 | 0.00 | 0.00 | 0.00 | 81 | 1010.1 |
| 20260505200558 | 10 | 53 | 1.6 | 8.0 | 0.00 | 0.00 | 0.00 | 81 | 1010.1 |
| 20260505200109 | 10 | 355 | 1.6 | 8.0 | 0.00 | 0.00 | 0.00 | 81 | 1010.1 |
| 20260505195725 | 10 | 351 | 1.6 | 8.0 | 0.00 | 0.00 | 0.00 | 81 | 1010.1 |
| 20260505194019 | 10 | 15 | 0.0 | 6.4 | 0.00 | 0.00 | 0.00 | 81 | 1010.1 |
| 20260505193538 | 10 | 29 | 0.0 | 6.4 | 0.00 | 0.00 | 0.00 | 81 | 1010.0 |
| 20260505192956 | 10 | 54 | 0.0 | 6.4 | 0.00 | 0.00 | 0.00 | 81 | 1009.9 |
| 20260505192518 | 10 | 75 | 1.6 | 8.0 | 0.00 | 0.00 | 0.00 | 81 | 1009.9 |
| 20260505192136 | 10 | 6 | 0.0 | 8.0 | 0.00 | 0.00 | 0.00 | 80 | 1010.0 |
| 20260505191014 | 10 | 112 | 0.0 | 8.0 | 0.00 | 0.00 | 0.00 | 80 | 1010.0 |
| 20260505190535 | 10 | 70 | 0.0 | 3.2 | 0.00 | 0.00 | 0.00 | 80 | 1010.0 |
| 20260505190056 | 10 | 48 | 0.0 | 9.7 | 0.00 | 0.00 | 0.00 | 80 | 1009.9 |
| 20260505185520 | 10 | 40 | 0.0 | 9.7 | 0.00 | 0.00 | 0.00 | 79 | 1009.8 |
| 20260505185042 | 10 | 359 | 1.6 | 8.0 | 0.00 | 0.00 | 0.00 | 79 | 1009.8 |
| 20260505184455 | 10 | 26 | 1.6 | 8.0 | 0.00 | 0.00 | 0.00 | 79 | 1009.9 |
| 20260505184011 | 10 | 58 | 0.0 | 6.4 | 0.00 | 0.00 | 0.00 | 79 | 1009.8 |
| 20260505183541 | 10 | 84 | 0.0 | 6.4 | 0.00 | 0.00 | 0.00 | 79 | 1009.9 |
| 20260505183004 | 10 | 27 | 0.0 | 6.4 | 0.00 | 0.00 | 0.00 | 79 | 1009.9 |
| 20260505182523 | 10 | 356 | 0.0 | 6.4 | 0.00 | 0.00 | 0.00 | 79 | 1009.9 |
| 20260505182042 | 10 | 39 | 1.6 | 6.4 | 0.00 | 0.00 | 0.00 | 78 | 1009.9 |
| 20260505181503 | 10 | 0 | 1.6 | 6.4 | 0.00 | 0.00 | 0.00 | 78 | 1009.9 |
| 20260505181121 | 10 | 150 | 0.0 | 8.0 | 0.00 | 0.00 | 0.00 | 78 | 1009.8 |
| 20260505180055 | 11 | 67 | 0.0 | 4.8 | 0.00 | 0.00 | 0.00 | 77 | 1009.9 |
| 20260505175526 | 11 | 15 | 0.0 | 4.8 | 0.00 | 0.00 | 0.00 | 77 | 1009.9 |
| 20260505175054 | 11 | 37 | 0.0 | 4.8 | 0.00 | 0.00 | 0.00 | 77 | 1009.9 |
| 20260505174532 | 11 | 103 | 0.0 | 4.8 | 0.00 | 0.00 | 0.00 | 77 | 1010.0 |
| 20260505174005 | 11 | 43 | 0.0 | 4.8 | 0.00 | 0.00 | 0.00 | 77 | 1010.0 |
| 20260505173527 | 11 | 34 | 0.0 | 11.3 | 0.00 | 0.00 | 0.00 | 77 | 1009.9 |
| 20260505173003 | 11 | 33 | 0.0 | 11.3 | 0.00 | 0.00 | 0.00 | 77 | 1009.9 |
| 20260505172612 | 11 | 6 | 1.6 | 11.3 | 0.00 | 0.00 | 0.00 | 76 | 1009.8 |
| 20260505171531 | 11 | 82 | 0.0 | 8.0 | 0.00 | 0.00 | 0.00 | 76 | 1009.9 |
| 20260505171053 | 11 | 0 | 1.6 | 8.0 | 0.00 | 0.00 | 0.00 | 76 | 1009.9 |
| 20260505170707 | 11 | 65 | 1.6 | 6.4 | 0.00 | 0.00 | 0.00 | 75 | 1010.0 |
| 20260505165727 | 11 | 2 | 1.6 | 11.3 | 0.00 | 0.00 | 0.00 | 76 | 1010.0 |
| 20260505164011 | 11 | 17 | 1.6 | 8.0 | 0.00 | 0.00 | 0.00 | 75 | 1010.1 |
| 20260505163522 | 11 | 96 | 0.0 | 14.5 | 0.00 | 0.00 | 0.00 | 75 | 1010.0 |
| 20260505163043 | 11 | 125 | 0.0 | 14.5 | 0.00 | 0.00 | 0.00 | 75 | 1010.1 |
| 20260505162607 | 11 | 339 | 0.0 | 8.0 | 0.00 | 0.00 | 0.00 | 74 | 1010.0 |
| 20260505161540 | 11 | 26 | 0.0 | 8.0 | 0.00 | 0.00 | 0.00 | 74 | 1010.1 |
| 20260505161002 | 11 | 17 | 1.6 | 6.4 | 0.00 | 0.00 | 0.00 | 73 | 1010.0 |
| 20260505160521 | 12 | 37 | 0.0 | 9.7 | 0.00 | 0.00 | 0.00 | 73 | 1010.1 |
| 20260505160131 | 12 | 190 | 0.0 | 9.7 | 0.00 | 0.00 | 0.00 | 73 | 1010.1 |
| 20260505153019 | 12 | 34 | 1.6 | 9.7 | 0.00 | 0.00 | 0.00 | 73 | 1010.1 |
| 20260505152638 | 12 | 358 | 0.0 | 9.7 | 0.00 | 0.00 | 0.00 | 72 | 1010.1 |
| 20260505151519 | 12 | 2 | 0.0 | 11.3 | 0.00 | 0.00 | 0.00 | 73 | 1010.2 |
| 20260505151140 | 12 | 116 | 4.8 | 11.3 | 0.00 | 0.00 | 0.00 | 73 | 1010.2 |
| 20260505140448 | 12 | 91 | 0.0 | 4.8 | 0.00 | 0.00 | 0.00 | 74 | 1010.6 |